TimeMDT,TemperatureF,Dew PointF,Humidity,Sea Level PressureIn,VisibilityMPH,Wind Direction,Wind SpeedMPH,Gust SpeedMPH,PrecipitationIn,Events,Conditions,WindDirDegrees,DateUTC
12:18 AM,57.2,53.6,88,30.44,10.0,SSE,5.8,-,0.00,Rain,Light Rain,150,2013-08-10 06:18:00
12:53 AM,57.0,54.0,89,30.16,10.0,SSE,5.8,-,0.00,,Overcast,150,2013-08-10 06:53:00
1:53 AM,57.0,54.0,89,30.16,10.0,SSW,4.6,-,0.00,,Overcast,200,2013-08-10 07:53:00
2:53 AM,55.9,54.0,93,30.14,10.0,SSW,8.1,-,0.01,Rain,Light Rain,210,2013-08-10 08:53:00
3:53 AM,55.9,55.0,97,30.15,10.0,North,4.6,-,0.00,,Scattered Clouds,350,2013-08-10 09:53:00
4:53 AM,55.0,53.1,93,30.15,10.0,Calm,Calm,-,N/A,,Clear,0,2013-08-10 10:53:00
5:34 AM,55.4,53.6,94,30.43,10.0,SE,16.1,-,N/A,,Partly Cloudy,130,2013-08-10 11:34:00
5:53 AM,55.0,53.1,93,30.17,10.0,SSE,11.5,-,N/A,,Scattered Clouds,150,2013-08-10 11:53:00
5:57 AM,55.4,53.6,94,30.44,10.0,SSE,10.4,-,N/A,,Mostly Cloudy,150,2013-08-10 11:57:00
6:07 AM,55.4,53.6,94,30.44,10.0,SSE,13.8,-,N/A,,Mostly Cloudy,160,2013-08-10 12:07:00
6:37 AM,53.6,53.6,100,30.44,10.0,South,10.4,-,N/A,,Scattered Clouds,180,2013-08-10 12:37:00
6:53 AM,54.0,53.1,97,30.20,10.0,South,10.4,-,N/A,,Partly Cloudy,190,2013-08-10 12:53:00
7:53 AM,54.0,53.1,97,30.20,10.0,West,6.9,-,N/A,,Clear,270,2013-08-10 13:53:00
8:53 AM,57.0,53.1,87,30.19,10.0,SSW,11.5,-,N/A,,Clear,200,2013-08-10 14:53:00
9:53 AM,60.1,53.1,78,30.18,10.0,SSW,17.3,-,N/A,,Clear,210,2013-08-10 15:53:00
10:53 AM,63.0,51.1,65,30.17,10.0,SSW,16.1,-,N/A,,Clear,210,2013-08-10 16:53:00
11:53 AM,69.1,48.9,49,30.13,10.0,SSW,17.3,-,N/A,,Clear,210,2013-08-10 17:53:00
12:53 PM,73.9,48.9,41,30.09,10.0,SSW,13.8,19.6,N/A,,Clear,200,2013-08-10 18:53:00
1:53 PM,75.9,46.9,36,30.06,10.0,SW,9.2,19.6,N/A,,Clear,220,2013-08-10 19:53:00
2:53 PM,75.9,46.0,35,30.05,10.0,Variable,4.6,-,N/A,,Clear,0,2013-08-10 20:53:00
3:53 PM,72.0,48.9,44,30.05,10.0,WNW,6.9,-,N/A,,Scattered Clouds,300,2013-08-10 21:53:00
4:53 PM,73.0,37.9,28,30.04,10.0,WSW,13.8,-,N/A,,Overcast,240,2013-08-10 22:53:00
5:12 PM,73.4,37.4,27,30.31,10.0,SSE,10.4,24.2,0.00,Rain,Light Rain,160,2013-08-10 23:12:00
5:53 PM,72.0,41.0,33,30.03,10.0,SW,16.1,23.0,0.00,,Mostly Cloudy,220,2013-08-10 23:53:00
6:53 PM,69.1,39.0,33,30.08,10.0,West,21.9,33.4,0.00,Rain,Light Rain,270,2013-08-11 00:53:00
7:11 PM,64.4,42.8,45,30.37,10.0,NNW,20.7,27.6,0.00,Rain,Light Rain,330,2013-08-11 01:11:00
7:53 PM,64.9,42.1,43,30.11,10.0,West,16.1,25.3,0.00,,Mostly Cloudy,280,2013-08-11 01:53:00
8:53 PM,59.0,46.9,64,30.13,10.0,WNW,15.0,-,0.00,,Partly Cloudy,300,2013-08-11 02:53:00
9:53 PM,59.0,48.9,69,30.14,10.0,West,12.7,-,0.00,Rain,Light Rain,280,2013-08-11 03:53:00
10:53 PM,62.1,45.0,53,30.13,10.0,WSW,8.1,20.7,0.00,,Overcast,250,2013-08-11 04:53:00
11:53 PM,59.0,46.9,64,30.10,10.0,NW,17.3,-,0.01,Rain,Light Rain,310,2013-08-11 05:53:00